This demonstration page uses our WeatherBlox Daily Observations layout. Learn more.

Left ArrowRight Arrow

40.92501, -98.34201

Hourly Observations for July 13, 2021

Temp ( °F °C ) Dew Point ( °F °C ) Humidity (%) Winds ( mph kmh ) Pressure ( in mb ) Visibility ( mi km ) Precip ( " mm )
12:53 am 00:53 Clear 68 20 60 15.6 76 76 S 8 13 30.03 1017 10 16 0.00 0.00
1:53 am 01:53 Clear 67 19.4 60 15.6 79 79 S 8 13 30.02 1017 10 16 0.00 0.00
2:53 am 02:53 Clear 66 18.9 59 15 78 78 S 8 13 30.02 1017 9 14 0.00 0.00
3:53 am 03:53 Clear 65 18.3 59 15 81 81 S 3 6 30.02 1017 9 14 0.00 0.00
4:53 am 04:53 Clear 63 17.2 58 14.4 84 84 Calm 30.02 1017 9 14 0.00 0.00
5:53 am 05:53 Clear 63 17.2 58 14.4 84 84 S 5 7 30.01 1016 10 16 0.00 0.00
6:53 am 06:53 Sunny 63 17.2 58 14.4 84 84 S 5 7 30.02 1017 9 14 0.00 0.00
7:53 am 07:53 Sunny 67 19.4 59 15 76 76 S 3 6 30.04 1017 10 16 0.00 0.00
8:53 am 08:53 Sunny 72 22.2 60 15.6 66 66 Calm 30.04 1017 10 16 0.00 0.00
9:53 am 09:53 Sunny 75 23.9 61 16.1 62 62 W 6 9 30.05 1018 10 16 0.00 0.00
10:53 am 10:53 Sunny 78 25.6 62 16.7 58 58 W 7 11 30.06 1018 10 16 0.00 0.00
11:53 am 11:53 Sunny 82 27.8 63 17.2 53 53 W 5 7 30.06 1018 10 16 0.00 0.00
12:53 pm 12:53 Sunny 84 28.9 64 17.8 51 51 N 5 7 30.05 1018 10 16 0.00 0.00
1:53 pm 13:53 Sunny 85 29.4 63 17.2 48 48 N 5 7 30.04 1017 10 16 0.00 0.00
2:53 pm 14:53 Sunny 85 29.4 65 18.3 51 51 NE 3 6 30.05 1018 10 16 0.00 0.00
3:53 pm 15:53 Sunny 83 28.3 67 19.4 59 59 ESE 5 7 30.03 1017 10 16 0.00 0.00
4:53 pm 16:53 Sunny 84 28.9 70 21.1 63 63 SSE 7 11 30.01 1016 10 16 0.00 0.00
5:53 pm 17:53 Sunny 84 28.9 70 21.1 63 63 SE 8 13 30.01 1016 10 16 0.00 0.00
6:53 pm 18:53 Sunny 83 28.3 71 21.7 67 67 SE 9 15 29.99 1016 10 16 0.00 0.00
7:53 pm 19:53 Sunny 82 27.8 73 22.8 74 74 E 6 9 29.97 1015 10 16 0.00 0.00
8:53 pm 20:53 Sunny 78 25.6 73 22.8 85 85 NNE 6 9 29.99 1016 9 14 0.00 0.00
9:53 pm 21:53 Clear 78 25.6 72 22.2 82 82 E 8 13 29.99 1016 10 16 0.00 0.00
10:53 pm 22:53 Partly Cloudy 77 25 70 21.1 79 79 E 8 13 29.98 1015 10 16 0.00 0.00
11:53 pm 23:53 Clear 76 24.4 69 20.6 79 79 E 9 15 29.96 1015 10 16 0.00 0.00

Powered by AerisWeather